Regional Weather Roundup
Issued by NWS Huntsville, AL

Home | Current Version | Previous Version | Text Only | Print | Product List | Glossary On
Versions: 1 2 3 4 5 6 7 8 9 10 11 12 13 14 15 16 17 18 19 20 21 22 23 24 25 26 27 28 29 30 31 32 33 34 35 36 37 38 39 40 41 42 43 44 45 46 47 48 49 50
000
ASUS44 KHUN 011624
RWRHUN

WEATHER ROUNDUP FOR THE TENNESSEE VALLEY
NATIONAL WEATHER SERVICE HUNTSVILLE AL
1100 AM CDT FRI AUG 01 2014

ALZ001>004-011700-
NORTHWEST ALABAMA

CITY           SKY/WX    TMP DP  RH WIND       PRES   REMARKS
COURTLAND HCN    N/A     75 N/A N/A CALM        N/A
RUSSELLVILLE     N/A     77 N/A N/A MISG        N/A
SHOALS AIRPORT MOSUNNY   79  67  66 E6        30.08F
SHOALS TVA RES   N/A     75 N/A N/A MISG        N/A
$$

ALZ005>007-016-011700-
NORTH CENTRAL ALABAMA

CITY           SKY/WX    TMP DP  RH WIND       PRES   REMARKS
CULLMAN AG STN   N/A     72 N/A N/A E5          N/A
DECATUR AP     MOSUNNY   79  66  65 SE3       30.09S
HUNTSVILLE AP  PTSUNNY   78  66  66 E3        30.09S
HUN NWS/UAH      N/A     78  64  61 SE5         N/A
MERIDIANVILLE  MOSUNNY   79  61  53 E7        30.09S
REDSTONE ARSN  PTSUNNY   79  66  65 CALM      30.09F
VINEMONT AP    CLOUDY    73  66  78 E3        30.11F
$$

ALZ008>010-011700-
NORTHEAST ALABAMA

CITY           SKY/WX    TMP DP  RH WIND       PRES   REMARKS
ALBERTVILLE    PTSUNNY   75  72  88 CALM      30.09F
CROSSVILLE       N/A     73 N/A N/A CALM        N/A
FORT PAYNE     CLOUDY    77  63  61 NE3       30.09F
SCOTTSBORO AP  PTSUNNY   77  66  69 S3        30.09F
SCOTTSBORO HCN   N/A     75 N/A N/A MISG        N/A
VALLEY HEAD      N/A     73 N/A N/A MISG        N/A
$$

TNZ076-096-097-011700-
SOUTHEASTERN MIDDLE TENNESSEE

CITY           SKY/WX    TMP DP  RH WIND       PRES   REMARKS
FAYETTEVILLE   MOSUNNY   75  64  69 SE7       30.10S
TULLAHOMA      MOSUNNY   79  63  57 E5        30.11S
WINCHESTER     MOSUNNY   79  64  61 CALM      30.10S
$$

...SURROUNDING SITES...

CITY           SKY/WX    TMP DP  RH WIND       PRES   REMARKS
ATLANTA        PTSUNNY   73  67  81 NE8       30.09F
ANNISTON       CLOUDY    73  67  81 E6        30.08F
BIRMINGHAM     CLOUDY    78  67  68 NE6       30.08F
CHATTANOOGA    PTSUNNY   81  65  58 VRB5      30.09F
CORINTH        FAIR      81  64  57 NE5       30.06F
DALTON         PTSUNNY   77  66  69 CALM      30.09F
GADSDEN        CLOUDY    75  66  73 NE8       30.08F
GOLDEN TRNGL   MOSUNNY   81  66  61 CALM      30.06S
HALEYVILLE     PTSUNNY   79  67  66 CALM      30.10F
JACKSON TN     CLOUDY    79  66  64 E3        30.08S
LEWISBURG      FAIR      78  66  66 CALM      30.09S
MEMPHIS        MOSUNNY   81  64  56 E6        30.07S
MURFREESBORO   FAIR      80  63  56 CALM      30.08F
NASHVILLE      MOSUNNY   82  63  52 VRB6      30.09S
OXFORD MS        N/A     81  63  54 NE8       30.07
ROME           CLOUDY    79  66  64 SE6       30.08F
SAVANNAH       SUNNY     82  66  57 NE7       30.07F
TUPELO         MOSUNNY   80  66  62 E7        30.06S
TUSCALOOSA     MOSUNNY   81  70  69 CALM      30.04S
$$

...GULF COAST WEATHER...

CITY           SKY/WX    TMP DP  RH WIND       PRES   REMARKS
GULFPORT       CLOUDY    83  67  58 NE5       30.02S
PASCAGOULA     CLOUDY    80  68  66 CALM      30.03S
MOBILE         CLOUDY    80  69  69 CALM      30.03F
GULF SHORES    CLOUDY    80  69  70 CALM      30.02S
PENSACOLA      CLOUDY    82  67  60 CALM      30.01S
DESTIN         CLOUDY    83  70  64 CALM      30.00F
PANAMA CITY    DRIZZLE   84  65  51 W7        30.01F
APPALACHICOLA  MOSUNNY   83  70  64 W7        30.01R
$$




USA.gov is the U.S. government's official web portal to all federal, state and local government web resources and services.